Year,Month,Day,Hour,Minute,Value (Times are PST for temperature in C)
2013,07,27,09,58,15.80
2013,07,27,09,59,16.00
2013,07,27,10,00,16.10
2013,07,27,10,01,16.10
2013,07,27,10,02,16.00
2013,07,27,10,03,15.80
2013,07,27,10,04,15.70
2013,07,27,10,05,15.60
2013,07,27,10,06,15.60
2013,07,27,10,07,15.60
2013,07,27,10,08,15.80
2013,07,27,10,09,16.00
2013,07,27,10,10,16.10
2013,07,27,10,11,16.20
2013,07,27,10,12,16.30
2013,07,27,10,13,16.40
2013,07,27,10,14,16.40
2013,07,27,10,15,16.50
2013,07,27,10,16,16.60
2013,07,27,10,17,16.70
2013,07,27,10,18,16.70
2013,07,27,10,19,16.70
2013,07,27,10,20,16.90
2013,07,27,10,21,17.00
2013,07,27,10,22,17.20
2013,07,27,10,23,17.20
2013,07,27,10,24,17.20
2013,07,27,10,25,17.30
2013,07,27,10,26,17.40
2013,07,27,10,27,17.50
2013,07,27,10,28,17.50
2013,07,27,10,29,17.50
2013,07,27,10,30,17.60
2013,07,27,10,31,17.60
2013,07,27,10,32,17.50
2013,07,27,10,33,17.40
2013,07,27,10,34,17.30
2013,07,27,10,35,17.30
2013,07,27,10,36,17.30
2013,07,27,10,37,17.30
2013,07,27,10,38,17.30
2013,07,27,10,39,17.20
2013,07,27,10,40,17.10
2013,07,27,10,41,17.00
2013,07,27,10,42,16.90
2013,07,27,10,43,16.90
2013,07,27,10,44,16.90
2013,07,27,10,45,17.00
2013,07,27,10,46,17.00
2013,07,27,10,47,17.00
2013,07,27,10,48,17.10
2013,07,27,10,49,17.10
2013,07,27,10,50,17.20
2013,07,27,10,51,17.10
2013,07,27,10,52,17.20
2013,07,27,10,53,17.10
2013,07,27,10,54,17.10
2013,07,27,10,55,17.20
2013,07,27,10,56,17.30
2013,07,27,10,57,17.40
2013,07,27,10,58,17.40
2013,07,27,10,59,17.40
2013,07,27,11,00,17.10
2013,07,27,11,01,16.70
2013,07,27,11,02,16.70
2013,07,27,11,03,16.70
2013,07,27,11,04,16.70
2013,07,27,11,05,16.80
2013,07,27,11,06,16.80
2013,07,27,11,07,16.80
2013,07,27,11,08,16.80
2013,07,27,11,09,16.90
2013,07,27,11,10,16.90
2013,07,27,11,11,16.90
2013,07,27,11,12,16.90
2013,07,27,11,13,16.90
2013,07,27,11,14,16.90
2013,07,27,11,15,16.90
2013,07,27,11,16,16.90
2013,07,27,11,17,17.00
2013,07,27,11,18,17.10
2013,07,27,11,19,17.20
2013,07,27,11,20,17.30
2013,07,27,11,21,17.30
2013,07,27,11,22,17.30
2013,07,27,11,23,17.30
2013,07,27,11,24,17.40
2013,07,27,11,25,17.60
2013,07,27,11,26,17.70
2013,07,27,11,27,17.70
2013,07,27,11,28,17.70
2013,07,27,11,29,17.60
2013,07,27,11,30,17.70
2013,07,27,11,31,17.80
2013,07,27,11,32,17.90
2013,07,27,11,33,17.80
2013,07,27,11,34,17.80
2013,07,27,11,35,17.90
2013,07,27,11,36,17.90
2013,07,27,11,37,18.00
2013,07,27,11,38,17.90
2013,07,27,11,39,18.10
2013,07,27,11,40,18.10
2013,07,27,11,41,18.10
2013,07,27,11,42,18.20
2013,07,27,11,43,18.20
2013,07,27,11,44,18.20
2013,07,27,11,45,18.20
2013,07,27,11,46,18.30
2013,07,27,11,47,18.50
2013,07,27,11,48,18.60
2013,07,27,11,49,18.70
2013,07,27,11,50,18.70
2013,07,27,11,51,18.70
2013,07,27,11,52,18.50
2013,07,27,11,53,18.40
2013,07,27,11,54,18.30
2013,07,27,11,55,18.20
2013,07,27,11,56,18.10
2013,07,27,11,57,18.00
2013,07,27,11,58,17.90
2013,07,27,11,59,17.90
2013,07,27,12,00,17.90
2013,07,27,12,01,18.10
2013,07,27,12,02,18.20
2013,07,27,12,03,18.40
2013,07,27,12,04,18.60
2013,07,27,12,05,18.80
2013,07,27,12,06,18.80
2013,07,27,12,07,18.50
2013,07,27,12,08,18.40
2013,07,27,12,09,18.30
2013,07,27,12,10,18.30
2013,07,27,12,11,18.30
2013,07,27,12,12,18.30
2013,07,27,12,13,18.40
2013,07,27,12,14,18.50
2013,07,27,12,15,18.50
2013,07,27,12,16,18.50
2013,07,27,12,17,18.40
2013,07,27,12,18,18.30
2013,07,27,12,19,18.30
2013,07,27,12,20,18.30
2013,07,27,12,21,18.40
2013,07,27,12,22,18.50
2013,07,27,12,23,18.60
2013,07,27,12,24,18.60
2013,07,27,12,25,18.50
2013,07,27,12,26,18.20
2013,07,27,12,27,18.20
2013,07,27,12,28,18.20
2013,07,27,12,29,18.20
2013,07,27,12,30,18.10
2013,07,27,12,31,17.90
2013,07,27,12,32,17.90
2013,07,27,12,33,17.90
2013,07,27,12,34,18.00
2013,07,27,12,35,18.10
2013,07,27,12,36,18.10
2013,07,27,12,37,17.90
2013,07,27,12,38,17.90
2013,07,27,12,39,17.90
2013,07,27,12,40,17.90
2013,07,27,12,41,17.90
2013,07,27,12,42,17.90
2013,07,27,12,43,18.00
2013,07,27,12,44,18.20
2013,07,27,12,45,18.00
2013,07,27,12,46,17.90
2013,07,27,12,47,17.90
2013,07,27,12,48,17.90
2013,07,27,12,49,18.10
2013,07,27,12,50,18.20
2013,07,27,12,51,18.20
2013,07,27,12,52,18.30
2013,07,27,12,53,18.40
2013,07,27,12,54,18.40
2013,07,27,12,55,18.40
2013,07,27,12,56,18.50
2013,07,27,12,57,18.50
2013,07,27,12,58,18.40
2013,07,27,12,59,18.40
2013,07,27,13,00,18.40
2013,07,27,13,01,18.40
2013,07,27,13,02,18.20
2013,07,27,13,03,18.20
2013,07,27,13,04,18.30
2013,07,27,13,05,18.40
2013,07,27,13,06,18.40
2013,07,27,13,07,18.40
2013,07,27,13,08,18.30
2013,07,27,13,09,18.30
2013,07,27,13,10,18.20
2013,07,27,13,11,18.20
2013,07,27,13,12,18.20
2013,07,27,13,13,18.20
2013,07,27,13,14,18.20
2013,07,27,13,15,18.10
2013,07,27,13,16,18.20
2013,07,27,13,17,18.20
2013,07,27,13,18,18.40
2013,07,27,13,19,18.40
2013,07,27,13,20,18.40
2013,07,27,13,21,18.50
2013,07,27,13,22,18.70
2013,07,27,13,23,18.90
2013,07,27,13,24,18.90
2013,07,27,13,25,19.00
2013,07,27,13,26,18.90
2013,07,27,13,27,18.90
2013,07,27,13,28,18.80
2013,07,27,13,29,18.70
2013,07,27,13,30,18.70
2013,07,27,13,31,18.60
2013,07,27,13,32,18.60
2013,07,27,13,33,18.80
2013,07,27,13,34,18.80
2013,07,27,13,35,18.70
2013,07,27,13,36,18.70
2013,07,27,13,37,18.70
2013,07,27,13,38,18.70
2013,07,27,13,39,18.80
2013,07,27,13,40,18.90
2013,07,27,13,41,19.00
2013,07,27,13,42,19.10
2013,07,27,13,43,19.10
2013,07,27,13,44,19.10
2013,07,27,13,45,18.90
2013,07,27,13,46,18.80
2013,07,27,13,47,18.90
2013,07,27,13,48,18.90
2013,07,27,13,49,19.10
2013,07,27,13,50,19.00
2013,07,27,13,51,18.90
2013,07,27,13,52,18.90
2013,07,27,13,53,19.00
2013,07,27,13,54,19.10
2013,07,27,13,55,19.10
2013,07,27,13,56,19.10
2013,07,27,13,57,19.00
2013,07,27,13,58,19.00
2013,07,27,13,59,19.10
2013,07,27,14,00,19.00
2013,07,27,14,01,18.90
2013,07,27,14,02,18.80
2013,07,27,14,03,18.70
2013,07,27,14,04,18.70
2013,07,27,14,05,18.60
2013,07,27,14,06,18.60
2013,07,27,14,07,18.60
2013,07,27,14,08,18.70
2013,07,27,14,09,18.90
2013,07,27,14,10,18.80
2013,07,27,14,11,18.90
2013,07,27,14,12,19.00
2013,07,27,14,13,19.10
2013,07,27,14,14,19.10
2013,07,27,14,15,19.00
2013,07,27,14,16,18.90
2013,07,27,14,17,18.90
2013,07,27,14,18,19.10
2013,07,27,14,19,19.10
2013,07,27,14,20,19.30
2013,07,27,14,21,19.40
2013,07,27,14,22,19.60
2013,07,27,14,23,19.70
2013,07,27,14,24,19.70
2013,07,27,14,25,19.50
2013,07,27,14,26,19.40
2013,07,27,14,27,19.30
2013,07,27,14,28,19.30
2013,07,27,14,29,19.30
2013,07,27,14,30,19.30
2013,07,27,14,31,19.30
2013,07,27,14,32,19.20
2013,07,27,14,33,19.20
2013,07,27,14,34,19.30
2013,07,27,14,35,19.20
2013,07,27,14,36,19.20
2013,07,27,14,37,19.30
2013,07,27,14,38,19.40
2013,07,27,14,39,19.40
2013,07,27,14,40,19.30
2013,07,27,14,41,19.40
2013,07,27,14,42,19.50
2013,07,27,14,43,19.50
2013,07,27,14,44,19.40
2013,07,27,14,45,19.20
2013,07,27,14,46,19.10
2013,07,27,14,47,19.10
2013,07,27,14,48,19.10
2013,07,27,14,49,19.30
2013,07,27,14,50,19.30
2013,07,27,14,51,19.30
2013,07,27,14,52,19.30
2013,07,27,14,53,19.40
2013,07,27,14,54,19.30
2013,07,27,14,55,19.10
2013,07,27,14,56,19.10
2013,07,27,14,57,19.30
2013,07,27,14,58,19.40
2013,07,27,14,59,19.40
2013,07,27,15,00,19.50
2013,07,27,15,01,19.60
2013,07,27,15,02,19.60
2013,07,27,15,03,19.60
2013,07,27,15,04,19.70
2013,07,27,15,05,19.70
2013,07,27,15,06,19.70
2013,07,27,15,07,19.60
2013,07,27,15,08,19.70
2013,07,27,15,09,19.90
2013,07,27,15,10,19.90
2013,07,27,15,11,19.90
2013,07,27,15,12,19.90
2013,07,27,15,13,19.90
2013,07,27,15,14,19.90
2013,07,27,15,15,19.90
2013,07,27,15,16,19.90
2013,07,27,15,17,19.90
2013,07,27,15,18,20.00
2013,07,27,15,19,20.10
2013,07,27,15,20,20.10
2013,07,27,15,21,20.00
2013,07,27,15,22,19.90
2013,07,27,15,23,19.80
2013,07,27,15,24,19.70
2013,07,27,15,25,19.70
2013,07,27,15,26,19.70
2013,07,27,15,27,19.80
2013,07,27,15,28,19.80
2013,07,27,15,29,19.90
2013,07,27,15,30,20.00
2013,07,27,15,31,20.20
2013,07,27,15,32,20.30
2013,07,27,15,33,20.50
2013,07,27,15,34,20.60
2013,07,27,15,35,20.60
2013,07,27,15,36,20.60
2013,07,27,15,37,20.70
2013,07,27,15,38,20.70
2013,07,27,15,39,20.80
2013,07,27,15,40,20.90
2013,07,27,15,41,20.90
2013,07,27,15,42,20.90
2013,07,27,15,43,20.90
2013,07,27,15,44,20.90
2013,07,27,15,45,21.00
2013,07,27,15,46,21.00
2013,07,27,15,47,20.90
2013,07,27,15,48,20.90
2013,07,27,15,49,20.80
2013,07,27,15,50,20.80
2013,07,27,15,51,20.80
2013,07,27,15,52,20.80
2013,07,27,15,53,20.80
2013,07,27,15,54,20.70
2013,07,27,15,55,20.50
2013,07,27,15,56,20.40
2013,07,27,15,57,20.20
2013,07,27,15,58,20.20
2013,07,27,15,59,20.30
2013,07,27,16,00,20.30
2013,07,27,16,01,20.50
2013,07,27,16,02,20.50
2013,07,27,16,03,20.60
2013,07,27,16,04,20.60
2013,07,27,16,05,20.60
2013,07,27,16,06,20.50
2013,07,27,16,07,20.50
2013,07,27,16,08,20.50
2013,07,27,16,09,20.50
2013,07,27,16,10,20.50
2013,07,27,16,11,20.50
2013,07,27,16,12,20.40
2013,07,27,16,13,20.50
2013,07,27,16,14,20.50
2013,07,27,16,15,20.60
2013,07,27,16,16,20.60
2013,07,27,16,17,20.60
2013,07,27,16,18,20.70
2013,07,27,16,19,20.80
2013,07,27,16,20,20.80
2013,07,27,16,21,20.70
2013,07,27,16,22,20.60
2013,07,27,16,23,20.60
2013,07,27,16,24,20.70
2013,07,27,16,25,20.70
2013,07,27,16,26,20.70
2013,07,27,16,27,20.60
2013,07,27,16,28,20.50
2013,07,27,16,29,20.30
2013,07,27,16,30,20.20
2013,07,27,16,31,20.20
2013,07,27,16,32,20.20
2013,07,27,16,33,20.10
2013,07,27,16,34,20.10
2013,07,27,16,35,20.20
2013,07,27,16,36,20.20
2013,07,27,16,37,20.20
2013,07,27,16,38,20.20
2013,07,27,16,39,20.30
2013,07,27,16,40,20.40
2013,07,27,16,41,20.40
2013,07,27,16,42,20.40
2013,07,27,16,43,20.40
2013,07,27,16,44,20.50
2013,07,27,16,45,20.60
2013,07,27,16,46,20.80
2013,07,27,16,47,20.90
2013,07,27,16,48,21.00
2013,07,27,16,49,21.20
2013,07,27,16,50,21.20
2013,07,27,16,51,21.20
2013,07,27,16,52,21.10
2013,07,27,16,53,21.10
2013,07,27,16,54,21.20
2013,07,27,16,55,21.20
2013,07,27,16,56,21.20
2013,07,27,16,57,21.30
2013,07,27,16,58,21.30
2013,07,27,16,59,21.40
2013,07,27,17,00,21.50
2013,07,27,17,01,21.60
2013,07,27,17,02,21.60
2013,07,27,17,03,21.60
2013,07,27,17,04,21.60
2013,07,27,17,05,21.50
2013,07,27,17,06,21.30
2013,07,27,17,07,21.00
2013,07,27,17,08,21.00
2013,07,27,17,09,21.00
2013,07,27,17,10,20.80
2013,07,27,17,11,20.70
2013,07,27,17,12,20.70
2013,07,27,17,13,20.60
2013,07,27,17,14,20.70
2013,07,27,17,15,20.70
2013,07,27,17,16,20.80
2013,07,27,17,17,20.80
2013,07,27,17,18,20.90
2013,07,27,17,19,21.00
2013,07,27,17,20,21.00
2013,07,27,17,21,20.90
2013,07,27,17,22,21.00
2013,07,27,17,23,20.90
2013,07,27,17,24,20.90
2013,07,27,17,25,20.90
2013,07,27,17,26,20.70
2013,07,27,17,27,20.60
2013,07,27,17,28,20.50
2013,07,27,17,29,20.50
2013,07,27,17,30,20.50
2013,07,27,17,31,20.60
2013,07,27,17,32,20.60
2013,07,27,17,33,20.70
2013,07,27,17,34,20.70
2013,07,27,17,35,20.80
2013,07,27,17,36,20.80
2013,07,27,17,37,20.70
2013,07,27,17,38,20.80
2013,07,27,17,39,20.70
2013,07,27,17,40,20.70
2013,07,27,17,41,20.70
2013,07,27,17,42,20.80
2013,07,27,17,43,20.80
2013,07,27,17,44,20.80
2013,07,27,17,45,20.80
2013,07,27,17,46,20.80
2013,07,27,17,47,20.90
2013,07,27,17,48,21.00
2013,07,27,17,49,21.10
2013,07,27,17,50,21.20
2013,07,27,17,51,21.30
2013,07,27,17,52,21.30
2013,07,27,17,53,21.30
2013,07,27,17,54,21.10
2013,07,27,17,55,21.10
2013,07,27,17,56,21.10
2013,07,27,17,57,21.10
2013,07,27,17,58,21.10
2013,07,27,17,59,21.10
2013,07,27,18,00,21.00
2013,07,27,18,01,21.00
2013,07,27,18,02,21.00
2013,07,27,18,03,21.00
2013,07,27,18,04,21.00
2013,07,27,18,05,21.00
2013,07,27,18,06,21.00
2013,07,27,18,07,21.10
2013,07,27,18,08,21.10
2013,07,27,18,09,21.10
2013,07,27,18,10,21.10
2013,07,27,18,11,21.20
2013,07,27,18,12,21.30
2013,07,27,18,13,21.40
2013,07,27,18,14,21.40
2013,07,27,18,15,21.50
2013,07,27,18,16,21.60
2013,07,27,18,17,21.60
2013,07,27,18,18,21.80
2013,07,27,18,19,21.90
2013,07,27,18,20,22.00
2013,07,27,18,21,22.10
2013,07,27,18,22,22.20
2013,07,27,18,23,22.30
2013,07,27,18,24,22.30
2013,07,27,18,25,22.40
2013,07,27,18,26,22.50
2013,07,27,18,27,22.50
2013,07,27,18,28,22.40
2013,07,27,18,29,22.30
2013,07,27,18,30,22.30
2013,07,27,18,31,22.20
2013,07,27,18,32,22.10
2013,07,27,18,33,22.00
2013,07,27,18,34,22.00
2013,07,27,18,35,22.00
2013,07,27,18,36,22.00
2013,07,27,18,37,22.00
2013,07,27,18,38,22.10
2013,07,27,18,39,22.10
2013,07,27,18,40,22.10
2013,07,27,18,41,22.00
2013,07,27,18,42,21.80
2013,07,27,18,43,21.80
2013,07,27,18,44,21.70
2013,07,27,18,45,21.70
2013,07,27,18,46,21.60
2013,07,27,18,47,21.60
2013,07,27,18,48,21.60
2013,07,27,18,49,21.60
2013,07,27,18,50,21.60
2013,07,27,18,51,21.50
2013,07,27,18,52,21.30
2013,07,27,18,53,21.30
2013,07,27,18,54,21.30
2013,07,27,18,55,21.20
2013,07,27,18,56,21.20
2013,07,27,18,57,21.20
2013,07,27,18,58,21.20
2013,07,27,18,59,21.20
2013,07,27,19,00,21.20
2013,07,27,19,01,21.20
2013,07,27,19,02,21.20
2013,07,27,19,03,21.20
2013,07,27,19,04,21.20
2013,07,27,19,05,21.20
2013,07,27,19,06,21.20
2013,07,27,19,07,21.20
